SBONWEB Weather Reports


time (UTC)temp
C
wind
direction
speed
KPH
gust
KPH
rain 1hr
cm
rain 24hr
cm
rain mn
cm
humidity
%
barometer
mb
20260906194718 23 0 0.0 0.0 0.00 0.00 0.00 77 1023.8
20260906193603 23 0 0.0 0.0 0.00 0.00 0.00 77 1023.7
20260906192703 23 0 0.0 0.0 0.00 0.00 0.00 76 1023.5
20260906191803 23 0 0.0 0.0 0.00 0.00 0.00 75 1023.5
20260906190904 24 0 0.0 0.0 0.00 0.00 0.00 74 1023.5
20260906190003 25 0 0.0 0.0 0.00 0.00 0.00 73 1023.4
20260906185403 25 0 0.0 0.0 0.00 0.00 0.00 72 1023.3
20260906184503 25 224 1.6 3.2 0.00 0.00 0.00 73 1023.3
20260906183603 25 228 0.0 3.2 0.00 0.00 0.00 71 1023.3
20260906182703 25 0 0.0 0.0 0.00 0.00 0.00 72 1023.1
20260906181803 25 0 0.0 0.0 0.00 0.00 0.00 72 1023.1
20260906180903 25 0 0.0 0.0 0.00 0.00 0.00 70 1023.0
20260906180217 25 0 0.0 0.0 0.00 0.00 0.00 71 1023.0
20260906175403 26 0 0.0 0.0 0.00 0.00 0.00 70 1023.0
20260906174504 26 0 0.0 0.0 0.00 0.00 0.00 69 1023.0
20260906173603 27 0 0.0 0.0 0.00 0.00 0.00 69 1023.0
20260906172703 27 0 0.0 0.0 0.00 0.00 0.00 67 1023.0
20260906172018 27 0 0.0 0.0 0.00 0.00 0.00 66 1022.9
20260906170903 28 0 0.0 0.0 0.00 0.00 0.00 65 1022.8
20260906170004 28 0 0.0 0.0 0.00 0.00 0.00 64 1022.6
20260906165403 28 191 1.6 3.2 0.00 0.00 0.00 61 1022.6
20260906164503 29 191 1.6 3.2 0.00 0.00 0.00 61 1022.5
20260906163604 30 189 1.6 4.8 0.00 0.00 0.00 53 1022.4
20260906162918 30 166 0.0 6.4 0.00 0.00 0.00 55 1022.3
20260906161803 30 93 0.0 3.2 0.00 0.00 0.00 57 1022.4
20260906161116 30 82 1.6 3.2 0.00 0.00 0.00 54 1022.4
20260906160218 30 160 3.2 6.4 0.00 0.00 0.00 52 1022.3
20260906155403 30 126 3.2 4.8 0.00 0.00 0.00 53 1022.3
20260906154504 30 134 1.6 6.4 0.00 0.00 0.00 51 1022.3
20260906153603 31 158 3.2 6.4 0.00 0.00 0.00 52 1022.3
20260906152703 30 118 3.2 9.7 0.00 0.00 0.00 52 1022.3
20260906151803 31 148 1.6 9.7 0.00 0.00 0.00 52 1022.4
20260906150904 30 179 3.2 8.0 0.00 0.00 0.00 51 1022.4
20260906150003 30 165 3.2 8.0 0.00 0.00 0.00 51 1022.6
20260906145403 30 106 4.8 12.9 0.00 0.00 0.00 51 1022.6
20260906144504 30 112 3.2 12.9 0.00 0.00 0.00 52 1022.7
20260906143603 30 219 4.8 6.4 0.00 0.00 0.00 53 1022.8
20260906142703 29 109 6.4 14.5 0.00 0.00 0.00 53 1022.8
20260906141804 30 106 6.4 17.7 0.00 0.00 0.00 53 1022.8
20260906140903 30 119 4.8 12.9 0.00 0.00 0.00 52 1022.8
20260906140003 30 142 3.2 11.3 0.00 0.00 0.00 52 1022.9
20260906135403 30 156 3.2 11.3 0.00 0.00 0.00 52 1023.0
20260906134504 30 193 3.2 9.7 0.00 0.00 0.00 53 1023.0
20260906133603 30 192 1.6 6.4 0.00 0.00 0.00 52 1023.0
20260906132703 30 34 6.4 8.0 0.00 0.00 0.00 54 1023.0
20260906132018 29 86 6.4 14.5 0.00 0.00 0.00 54 1023.1
20260906130904 29 176 6.4 11.3 0.00 0.00 0.00 55 1023.2
20260906130003 29 196 4.8 12.9 0.00 0.00 0.00 53 1023.2
20260906125616 29 201 4.8 12.9 0.00 0.00 0.00 54 1023.2
20260906124504 30 142 3.2 9.7 0.00 0.00 0.00 53 1023.3
20260906123817 30 184 3.2 9.7 0.00 0.00 0.00 54 1023.4
20260906122703 29 144 3.2 9.7 0.00 0.00 0.00 55 1023.5
20260906121804 29 109 3.2 9.7 0.00 0.00 0.00 55 1023.4
20260906120903 28 130 6.4 11.3 0.00 0.00 0.00 55 1023.5
20260906120003 28 121 4.8 12.9 0.00 0.00 0.00 55 1023.5
20260906115618 28 122 4.8 12.9 0.00 0.00 0.00 55 1023.5
20260906114717 28 52 4.8 11.3 0.00 0.00 0.00 57 1023.6
20260906113604 28 96 6.4 11.3 0.00 0.00 0.00 55 1023.7
20260906112704 28 119 4.8 12.9 0.00 0.00 0.00 56 1023.6
20260906111803 28 127 6.4 12.9 0.00 0.00 0.00 55 1023.6
20260906111117 28 102 4.8 12.9 0.00 0.00 0.00 54 1023.5
20260906110003 28 95 3.2 9.7 0.00 0.00 0.00 55 1023.8
20260906105403 27 121 4.8 8.0 0.00 0.00 0.00 56 1023.7
20260906104503 27 107 6.4 12.9 0.00 0.00 0.00 55 1023.8
20260906103603 27 90 6.4 14.5 0.00 0.00 0.00 55 1023.9
20260906102704 27 67 3.2 11.3 0.00 0.00 0.00 55 1023.9
20260906101804 27 172 3.2 8.0 0.00 0.00 0.00 56 1024.0
20260906100903 27 217 1.6 8.0 0.00 0.00 0.00 58 1024.0
20260906100003 27 180 1.6 8.0 0.00 0.00 0.00 57 1024.2
20260906095403 27 170 1.6 6.4 0.00 0.00 0.00 58 1024.3
20260906094503 27 300 3.2 6.4 0.00 0.00 0.00 55 1024.3
20260906093818 27 346 3.2 6.4 0.00 0.00 0.00 55 1024.3
20260906092703 27 31 3.2 6.4 0.00 0.00 0.00 54 1024.4
20260906091804 27 64 3.2 12.9 0.00 0.00 0.00 54 1024.5
20260906090903 27 32 3.2 11.3 0.00 0.00 0.00 56 1024.5
20260906090003 27 21 3.2 8.0 0.00 0.00 0.00 55 1024.4
20260906085619 27 19 3.2 8.0 0.00 0.00 0.00 55 1024.3
20260906084503 27 230 3.2 11.3 0.00 0.00 0.00 55 1024.3
20260906083603 27 245 1.6 6.4 0.00 0.00 0.00 53 1024.4
20260906082703 26 321 4.8 6.4 0.00 0.00 0.00 55 1024.3
20260906081804 26 360 6.4 12.9 0.00 0.00 0.00 54 1024.4
20260906080903 26 9 6.4 12.9 0.00 0.00 0.00 52 1024.2
20260906080217 26 325 6.4 12.9 0.00 0.00 0.00 53 1024.2
20260906075403 25 350 6.4 11.3 0.00 0.00 0.00 54 1024.1
20260906074503 25 7 4.8 12.9 0.00 0.00 0.00 54 1024.0
20260906073604 25 9 3.2 6.4 0.00 0.00 0.00 55 1023.9
20260906072703 25 347 3.2 6.4 0.00 0.00 0.00 55 1023.9
20260906071803 24 289 6.4 11.3 0.00 0.00 0.00 56 1023.9
20260906070904 24 325 6.4 12.9 0.00 0.00 0.00 55 1023.7
20260906070003 23 345 8.0 16.1 0.00 0.00 0.00 55 1023.8
20260906065403 23 330 8.0 16.1 0.00 0.00 0.00 56 1023.7
20260906064503 23 345 4.8 12.9 0.00 0.00 0.00 56 1023.6
20260906063604 23 349 6.4 8.0 0.00 0.00 0.00 55 1023.6
20260906062703 23 287 4.8 12.9 0.00 0.00 0.00 56 1023.5
20260906061803 23 297 4.8 11.3 0.00 0.00 0.00 56 1023.3
20260906060904 23 348 4.8 11.3 0.00 0.00 0.00 56 1023.2
20260906060003 23 10 4.8 8.0 0.00 0.00 0.00 54 1023.1
20260906055618 23 12 4.8 8.0 0.00 0.00 0.00 54 1023.1
20260906054503 23 354 4.8 11.3 0.00 0.00 0.00 55 1022.8
20260906053603 22 359 3.2 9.7 0.00 0.00 0.00 56 1022.7
20260906052704 22 311 3.2 6.4 0.00 0.00 0.00 56 1022.5
20260906052017 22 305 4.8 8.0 0.00 0.00 0.00 56 1022.5
20260906050903 22 334 3.2 4.8 0.00 0.00 0.00 55 1022.2
20260906050218 22 335 3.2 4.8 0.00 0.00 0.00 55 1022.2
20260906045403 22 335 4.8 8.0 0.00 0.00 0.00 54 1022.0
20260906044504 22 337 4.8 11.3 0.00 0.00 0.00 54 1022.0
20260906043603 22 340 6.4 11.3 0.00 0.00 0.00 54 1021.9
20260906042704 22 13 6.4 11.3 0.00 0.00 0.00 54 1021.9
20260906041803 22 1 6.4 12.9 0.00 0.00 0.00 53 1021.9
20260906040903 23 11 6.4 11.3 0.00 0.00 0.00 52 1021.8
20260906040003 23 358 4.8 11.3 0.00 0.00 0.00 52 1021.8
20260906035403 23 349 4.8 8.0 0.00 0.00 0.00 52 1021.7
20260906034504 23 322 4.8 8.0 0.00 0.00 0.00 52 1021.7
20260906033603 23 336 4.8 11.3 0.00 0.00 0.00 52 1021.6
20260906032703 23 357 4.8 8.0 0.00 0.00 0.00 52 1021.6
20260906031803 23 8 3.2 9.7 0.00 0.00 0.00 52 1021.6
20260906030903 23 332 4.8 9.7 0.00 0.00 0.00 52 1021.6
20260906030004 23 330 4.8 9.7 0.00 0.00 0.00 53 1021.5
20260906025403 23 348 4.8 9.7 0.00 0.00 0.00 53 1021.4
20260906024718 22 342 3.2 9.7 0.00 0.00 0.00 53 1021.5
20260906023604 22 341 3.2 8.0 0.00 0.00 0.00 54 1021.4
20260906022917 22 341 1.6 8.0 0.00 0.00 0.00 57 1021.3
20260906021803 22 296 1.6 6.4 0.00 0.00 0.00 56 1021.3
20260906020903 22 252 1.6 3.2 0.00 0.00 0.00 55 1021.2
20260906015618 23 0 0.0 0.0 0.00 0.00 0.00 54 1021.0
20260906014504 23 283 3.2 4.8 0.00 0.00 0.00 52 1020.9
20260906013603 23 346 4.8 8.0 0.00 0.00 0.00 51 1020.9
20260906012703 23 10 4.8 8.0 0.00 0.00 0.00 49 1020.9
20260906011803 23 13 4.8 6.4 0.00 0.00 0.00 49 1020.8
20260906010903 23 355 4.8 8.0 0.00 0.00 0.00 49 1020.8
20260906010003 23 308 4.8 9.7 0.00 0.00 0.00 49 1020.8
20260906005618 24 289 4.8 8.0 0.00 0.00 0.00 49 1020.7
20260906004503 24 291 3.2 6.4 0.00 0.00 0.00 48 1020.7
20260906003603 25 32 4.8 12.9 0.00 0.00 0.00 47 1020.8
20260906002703 25 41 4.8 17.7 0.00 0.00 0.00 47 1020.8
20260906001803 25 58 4.8 11.3 0.00 0.00 0.00 46 1020.8
20260906000903 25 14 6.4 11.3 0.00 0.00 0.00 45 1020.6
20260906000003 25 340 6.4 11.3 0.00 0.00 0.00 45 1020.5
20260905235617 25 322 4.8 12.9 0.00 0.00 0.00 45 1020.4
20260905234503 25 273 4.8 11.3 0.00 0.00 0.00 44 1020.4
20260905233603 26 261 6.4 16.1 0.00 0.00 0.00 43 1020.5
20260905232918 26 280 8.0 16.1 0.00 0.00 0.00 43 1020.5
20260905232017 26 301 9.7 16.1 0.00 0.00 0.00 43 1020.4
20260905230904 26 289 8.0 17.7 0.00 0.00 0.00 42 1020.4
20260905230003 26 277 9.7 19.3 0.00 0.00 0.00 42 1020.4
20260905225617 26 291 9.7 19.3 0.00 0.00 0.00 43 1020.3
20260905224503 26 291 8.0 20.9 0.00 0.00 0.00 43 1020.3
20260905223603 25 280 8.0 16.1 0.00 0.00 0.00 44 1020.3
20260905222704 25 302 8.0 14.5 0.00 0.00 0.00 45 1020.3
20260905221803 25 285 4.8 12.9 0.00 0.00 0.00 46 1020.2
20260905220903 25 299 4.8 9.7 0.00 0.00 0.00 45 1020.2
20260905220003 26 1 6.4 8.0 0.00 0.00 0.00 45 1020.2
20260905215403 26 5 6.4 8.0 0.00 0.00 0.00 44 1020.1
20260905214503 26 4 6.4 8.0 0.00 0.00 0.00 45 1020.1
20260905213603 26 3 8.0 11.3 0.00 0.00 0.00 45 1020.1
20260905212703 26 8 6.4 11.3 0.00 0.00 0.00 46 1020.0
20260905211804 26 352 6.4 8.0 0.00 0.00 0.00 46 1020.0
20260905210903 26 354 8.0 12.9 0.00 0.00 0.00 46 1019.9
20260905210003 26 5 9.7 14.5 0.00 0.00 0.00 45 1019.8
20260905205403 26 346 9.7 14.5 0.00 0.00 0.00 45 1019.8
20260905204503 26 326 9.7 16.1 0.00 0.00 0.00 44 1019.7
20260905203604 26 339 11.3 19.3 0.00 0.00 0.00 45 1019.7
20260905202703 26 337 9.7 16.1 0.00 0.00 0.00 45 1019.6
20260905201803 26 317 8.0 14.5 0.00 0.00 0.00 48 1019.6
20260905200903 25 338 6.4 14.5 0.00 0.00 0.00 51 1019.5
20260905200003 25 358 3.2 11.3 0.00 0.00 0.00 58 1019.4
20260905195618 24 355 1.6 8.0 0.00 0.00 0.00 62 1019.3